Location: Unspecified
(49.2170°N, 0.0000°E)
Time: 17:33:43
(UTC+00:00)

A-11 Canister half - Pass Details

Date: 16 June 2019
Orbit: 1526 x 1683 km, 47.3° (Epoch: 17 July)

Event Time Altitude Azimuth Distance (km) Brightness Sun altitude
Rises 13:11:45 0° 289° (WNW) 4,686 11.7 60.6°
Reaches altitude 10° 13:15:25 10° 277° (W) 3,710 11.4 60.3°
Maximum altitude 13:22:35 26° 226° (SW) 2,704 11.4 59.5°
Drops below altitude 10° 13:29:53 10° 175° (S) 3,771 11.5 58.8°
Sets 13:33:40 0° 164° (SSE) 4,778 11.8 58.3°
